Regional Weather Roundup
Issued by NWS Sterling, VA

Home | Current Version | Previous Version | Graphics & Text | Print | Product List | Glossary On
Versions: 1 2 3 4 5 6 7 8 9 10 11 12 13 14 15 16 17 18 19 20 21 22 23 24 25 26 27 28 29 30 31 32 33 34 35 36 37 38 39 40 41 42 43 44 45 46 47 48 49 50
000
ASUS41 KLWX 031510
RWRLWX

REGIONAL WEATHER ROUNDUP
NATIONAL WEATHER SERVICE BALTIMORE MD/WASHINGTON DC
1100 AM EDT THU SEP 03 2015

Note: "FAIR" indicates few or no clouds below 12,000 feet
with no significant weather and/or obstructions to visibility.
 TC=TEMPERATURE CELSIUS

 * =Non NWS site. Station does not report precipitation (e.g. rain,
    snow, etc.), thunder, or fog.

DCZ001-MDZ009-015-VAZ040>042-051-053>054-031600-
WASHINGTON METRO

CITY           SKY/WX    TMP DP  RH WIND       PRES   REMARKS
WASHINGTON NAT MOSUNNY   86  69  56 NW6       29.93F HX  90
DULLES         SUNNY     86  68  54 NW8       29.95S
ANDREWS AFB    SUNNY     86  68  53 NE7       29.92F
FT BELVOIR     SUNNY     86  69  56 VRB5      29.93S HX  90
QUANTICO       MOSUNNY   83  68  60 E3        29.94S
COLLEGE PARK*  SUNNY     86  68  54 N5        29.92S
LEESBURG*      SUNNY     86  72  62 N8G18     29.96S HX  92
MANASSAS*      SUNNY     86  70  58 N8        29.94S HX  90
GAITHERSBURG*  SUNNY     84  70  61 NW8       29.98S

$$

MDZ006>007-011-014-031600-
BALTIMORE METRO

CITY           SKY/WX    TMP DP  RH WIND       PRES   REMARKS
BWI AIRPORT    MOSUNNY   85  68  56 CALM      29.92F
MD SCIENCE CTR   N/A     85  68  56 MISG      29.92S
MARTIN STATE   SUNNY     84  73  70 W3        29.93S HX  91
ANNAPOLIS      SUNNY     83  71  67 NW3       29.92S
FORT MEADE*    SUNNY     84  68  58 CALM      29.95S

$$

MDZ012-015-019>023-031600-
MARYLAND EASTERN SHORE

CITY           SKY/WX    TMP DP  RH WIND       PRES   REMARKS
OCEAN CITY     SUNNY     87  68  52 NE8       29.90S HX  90
SALISBURY      SUNNY     86  71  60 N7        29.90S HX  91
BAY BRIDGE AP*   N/A     81  68  65 NW6       29.92S
CAMBRIDGE*     SUNNY     84  68  58 N3        29.91S
EASTON*        SUNNY     86  72  62 CALM      29.95S HX  92

$$

MDZ017>025-031600-
SOUTHERN MARYLAND

CITY           SKY/WX    TMP DP  RH WIND       PRES   REMARKS
PATUXENT RIVER MOSUNNY   83  70  64 N3        29.92S
ST INIGOES     SUNNY     84  71  65 CALM      29.91S
LEONARDTOWN*   NOT AVBL

$$

MDZ003>005-031600-
NORTH CENTRAL MARYLAND

CITY           SKY/WX    TMP DP  RH WIND       PRES   REMARKS
FREDERICK*     SUNNY     84  72  65 CALM      29.97S
HAGERSTOWN APT SUNNY     83  67  58 NW7       29.97F
WESTMINSTER*   SUNNY     82  70  65 NE6       29.96S

$$

MDZ501>502-031600-
WESTERN MARYLAND

CITY           SKY/WX    TMP DP  RH WIND       PRES   REMARKS
OAKLAND*       PTSUNNY   70  64  83 W3        30.11S
CUMBERLAND*    SUNNY     79  70  73 CALM      30.03F

$$

VAZ025>031-031600-
SHENANDOAH VALLEY

CITY           SKY/WX    TMP DP  RH WIND       PRES   REMARKS
WINCHESTER*    SUNNY     82  68  61 CALM      29.97F
FRONT ROYAL*   FAIR      81  68  65 SE3       29.97F
LURAY*         FAIR      79  68  69 SW5       30.00S
NEW MARKET*    FAIR      80  69  69 CALM      29.99F
STAUNTON*      SUNNY     83  65  54 CALM      30.04S
WAYNESBORO*    FAIR      81  67  63 CALM      30.03F

$$

WVZ021-048>050-054>055-031600-
EASTERN WEST VIRGINIA PANHANDLE

CITY           SKY/WX    TMP DP  RH WIND       PRES   REMARKS
MARTINSBURG    SUNNY     83  66  56 CALM      29.97F
PETERSBURG*    SUNNY     79  70  74 E3        30.02S

$$

VAZ036>039-050-031600-
CENTRAL FOOTHILLS

CITY           SKY/WX    TMP DP  RH WIND       PRES   REMARKS
CHARLOTTESVILL SUNNY     86  69  56 CALM      29.97S HX  90
CULPEPER*      SUNNY     83  71  65 N5        29.96S
ORANGE*        SUNNY     86  68  54 N6        29.97S
GORDONSVILLE*  FAIR      86  68  55 N5        29.96S
WARRENTON*     FAIR      88  71  56 NW8       29.94S HX  93

$$

VAZ055>057-031600-
NORTH AND CENTRAL PIEDMONT

CITY           SKY/WX    TMP DP  RH WIND       PRES   REMARKS
FREDERICKSBRG* SUNNY     87  69  55 N7        29.93S HX  90
STAFFORD*      SUNNY     86  67  53 N7        29.98S

$$

NCZ024-NYZ072-PAZ021-071-VAZ022-071-031600-
OTHER REGIONAL OBSERVATIONS

CITY           SKY/WX    TMP DP  RH WIND       PRES   REMARKS
NEW YORK CITY  SUNNY     84  64  50 VRB3      29.92S
PHILADELPHIA   MOSUNNY   87  65  47 N10       29.90F
PITTSBURGH     CLOUDY    80  67  64 SE3       30.01S
ROANOKE        MOSUNNY   84  66  54 VRB3      30.04F
RICHMOND       MOSUNNY   86  69  56 N6        29.94R HX  90
RALEIGH        PTSUNNY   79  70  74 CALM      29.99R

$$

ANZ530>537-031600-
MARINE OBSERVATIONS

STATION/POSITION TIME  TEMP    WIND        PRES
                       AIR SEA DIR/SP/G
                 (UTC) (F)     (DEG/KT/KT) (MB)
THOMAS PT LIGHT  NOT AVBL
BALT KEY BRIDGE  1400   80      CALM  /  1 1013.2R
COVE POINT       1400   77     350/  8/ 10 1013.8R
LEWISETTA        1400   78 80  320/  6/  7 1012.7F
SOLOMONS ISLAND  1400      81                N/A
PINEY POINT      1405          330/  9/ 10   N/A

$$




USA.gov is the U.S. government's official web portal to all federal, state and local government web resources and services.